Вернуться в каталог

FENGYUN 1C DEB

LostPO
NORAD 36989·DEBRIS·🇨🇳 China

Запущен May 10, 1999 с Taiyuan Satellite Launch Center

Loading…

Ближайшие Пролёты (ближайшие 24 часа)

TLE

УстаревшееSource: Space-Track

Эпоха: Feb 24, 2024, 15:09 UTC

1 36989U 99025EBV 24055.63159469  .00005529  00000-0  39237-2 0  9996
2 36989  98.2256   3.1983 0255484  38.3951 323.5087 13.83507494753838

Отслеживайте FENGYUN 1C DEB в реальном времени с AllMySat

Download on the App Store